SWR74D LSZH-EBBR

Flight info

Callsign SWR74D
Flight time 0h 55m
Altitude 30000
Route VEBIT T10 TORPA DCT EDOPI DCT GIVOR DCT SORAL DCT IBERA DCT DIK Y37 BATTY
Aircraft A320/M-SDE2E3FGHIJ1RWXY/LB1

Departure

Time 2026-05-07 17:35
Airport Zürich Airport (LSZH)

Arrival

Time 2026-05-07 18:30
Airport Brussels Airport (EBBR)
Time Latitude Longitude Altitude Speed Heading
2026-05-07 16:55 47.44849 8.56147 1399 ft 0 kts 65°
2026-05-07 17:24 47.44840 8.56120 1406 ft 4 kts 62°
2026-05-07 17:24 47.44826 8.56085 1409 ft 4 kts 55°
2026-05-07 17:25 47.44810 8.56055 1403 ft 4 kts 38°
2026-05-07 17:25 47.44789 8.56040 1408 ft 3 kts 340°
2026-05-07 17:25 47.44782 8.56044 1402 ft 0 kts 335°
2026-05-07 17:28 47.44799 8.56032 1406 ft 10 kts 335°
2026-05-07 17:29 47.44900 8.55964 1402 ft 19 kts 336°
2026-05-07 17:29 47.44952 8.55828 1404 ft 17 kts 281°
2026-05-07 17:29 47.45031 8.55720 1405 ft 15 kts 335°
2026-05-07 17:29 47.45128 8.55652 1410 ft 16 kts 334°
2026-05-07 17:30 47.45235 8.55586 1407 ft 17 kts 341°
2026-05-07 17:30 47.45349 8.55527 1414 ft 18 kts 335°
2026-05-07 17:30 47.45470 8.55444 1405 ft 20 kts 334°
2026-05-07 17:30 47.45603 8.55352 1402 ft 15 kts 335°
2026-05-07 17:31 47.45670 8.55413 1401 ft 14 kts 91°
2026-05-07 17:31 47.45662 8.55536 1403 ft 11 kts 95°
2026-05-07 17:31 47.45651 8.55683 1405 ft 19 kts 96°
2026-05-07 17:31 47.45634 8.55923 1409 ft 26 kts 96°
2026-05-07 17:32 47.45616 8.56185 1415 ft 26 kts 96°
2026-05-07 17:32 47.45597 8.56446 1416 ft 26 kts 96°
2026-05-07 17:32 47.45578 8.56705 1418 ft 25 kts 96°
2026-05-07 17:32 47.45565 8.56897 1420 ft 9 kts 96°
2026-05-07 17:33 47.45571 8.56986 1421 ft 10 kts 62°
2026-05-07 17:33 47.45642 8.57024 1425 ft 10 kts
2026-05-07 17:33 47.45663 8.56985 1424 ft 0 kts 276°
2026-05-07 17:34 47.45664 8.56978 1424 ft 7 kts 277°
2026-05-07 17:34 47.45695 8.56552 1416 ft 79 kts 276°
2026-05-07 17:34 47.45776 8.55405 1400 ft 140 kts 276°
2026-05-07 17:35 47.45883 8.53911 1833 ft 146 kts 277°
2026-05-07 17:35 47.45991 8.52399 2422 ft 149 kts 277°
2026-05-07 17:35 47.46098 8.50910 3100 ft 146 kts 276°
2026-05-07 17:35 47.46212 8.49415 3573 ft 147 kts 276°
2026-05-07 17:36 47.46135 8.47913 3966 ft 152 kts 243°
2026-05-07 17:36 47.45357 8.46874 4409 ft 155 kts 207°
2026-05-07 17:36 47.44442 8.45975 4670 ft 171 kts 230°
2026-05-07 17:36 47.43688 8.44490 4924 ft 190 kts 239°
2026-05-07 17:37 47.42946 8.42750 5203 ft 212 kts 236°
2026-05-07 17:37 47.42054 8.40853 5485 ft 238 kts 235°
2026-05-07 17:37 47.41047 8.38769 5928 ft 259 kts 235°
2026-05-07 17:37 47.39979 8.36577 6710 ft 264 kts 234°
2026-05-07 17:38 47.38893 8.34385 7594 ft 266 kts 237°
2026-05-07 17:38 47.38065 8.31942 8479 ft 267 kts 244°
2026-05-07 17:38 47.37233 8.29481 9367 ft 269 kts 242°
2026-05-07 17:38 47.36351 8.27030 10202 ft 272 kts 241°
2026-05-07 17:39 47.35422 8.24488 10558 ft 293 kts 241°
2026-05-07 17:39 47.34419 8.21744 10790 ft 315 kts 241°
2026-05-07 17:39 47.33367 8.18845 11347 ft 324 kts 242°
2026-05-07 17:39 47.32301 8.15888 12037 ft 329 kts 242°
2026-05-07 17:40 47.31227 8.12884 12778 ft 333 kts 242°
2026-05-07 17:40 47.30145 8.09844 13486 ft 337 kts 242°
2026-05-07 17:40 47.29050 8.06761 13907 ft 341 kts 242°
2026-05-07 17:40 47.28016 8.03620 13999 ft 341 kts 249°
2026-05-07 17:41 47.27397 8.00249 14027 ft 342 kts 261°
2026-05-07 17:41 47.27276 7.96751 14023 ft 343 kts 272°
2026-05-07 17:41 47.27581 7.93241 14245 ft 348 kts 277°
2026-05-07 17:41 47.27927 7.89708 14937 ft 350 kts 276°
2026-05-07 17:42 47.28267 7.86144 15578 ft 353 kts 276°
2026-05-07 17:42 47.28606 7.82543 16213 ft 356 kts 276°
2026-05-07 17:42 47.28945 7.78913 16834 ft 360 kts 276°
2026-05-07 17:42 47.29286 7.75248 17446 ft 363 kts 276°
2026-05-07 17:43 47.29629 7.71552 18063 ft 366 kts 276°
2026-05-07 17:43 47.29978 7.67815 18617 ft 370 kts 276°
2026-05-07 17:43 47.30340 7.64055 19150 ft 373 kts 278°
2026-05-07 17:43 47.31001 7.60339 19680 ft 377 kts 286°
2026-05-07 17:44 47.31816 7.56654 20232 ft 380 kts 286°
2026-05-07 17:44 47.32632 7.52931 20779 ft 383 kts 286°
2026-05-07 17:44 47.33448 7.49181 21318 ft 386 kts 286°
2026-05-07 17:44 47.34257 7.45454 21845 ft 388 kts 286°
2026-05-07 17:45 47.35083 7.41644 22368 ft 391 kts 286°
2026-05-07 17:45 47.35914 7.37807 22880 ft 394 kts 286°
2026-05-07 17:45 47.36752 7.33934 23361 ft 397 kts 286°
2026-05-07 17:45 47.37592 7.30040 23809 ft 400 kts 286°
2026-05-07 17:46 47.38435 7.26118 24223 ft 402 kts 286°
2026-05-07 17:46 47.39279 7.22168 24633 ft 404 kts 286°
2026-05-07 17:46 47.40126 7.18202 25029 ft 406 kts 286°
2026-05-07 17:46 47.40909 7.14193 25416 ft 407 kts 281°
2026-05-07 17:47 47.41513 7.10100 25795 ft 409 kts 281°
2026-05-07 17:47 47.42118 7.05985 26175 ft 411 kts 281°
2026-05-07 17:47 47.42724 7.01855 26540 ft 413 kts 281°
2026-05-07 17:47 47.43332 6.97703 26900 ft 415 kts 281°
2026-05-07 17:48 47.43943 6.93533 27265 ft 416 kts 281°
2026-05-07 17:48 47.44557 6.89341 27617 ft 418 kts 281°
2026-05-07 17:48 47.45168 6.85135 27961 ft 420 kts 281°
2026-05-07 17:48 47.45779 6.80903 28301 ft 422 kts 281°
2026-05-07 17:49 47.46484 6.76692 28637 ft 424 kts 288°
2026-05-07 17:49 47.47754 6.72748 28948 ft 428 kts 301°
2026-05-07 17:49 47.49629 6.69313 29244 ft 433 kts 314°
2026-05-07 17:49 47.52021 6.66582 29536 ft 438 kts 327°
2026-05-07 17:50 47.54809 6.64728 29814 ft 444 kts 341°
2026-05-07 17:50 47.57856 6.63850 30083 ft 449 kts 350°
2026-05-07 17:50 47.60962 6.63239 30310 ft 450 kts 350°
2026-05-07 17:50 47.64072 6.62627 30528 ft 452 kts 350°
2026-05-07 17:51 47.67196 6.62009 30747 ft 453 kts 350°
2026-05-07 17:51 47.70320 6.61385 31028 ft 453 kts 349°
2026-05-07 17:51 47.73440 6.60757 31308 ft 453 kts 349°
2026-05-07 17:51 47.76560 6.60124 31597 ft 452 kts 349°
2026-05-07 17:52 47.79676 6.59490 31891 ft 452 kts 349°
2026-05-07 17:52 47.82747 6.58864 32013 ft 449 kts 349°
2026-05-07 17:52 47.88867 6.57621 32032 ft 441 kts 349°
2026-05-07 17:53 47.94929 6.56369 32042 ft 439 kts 348°
2026-05-07 17:53 48.00964 6.54933 32037 ft 439 kts 348°
2026-05-07 17:54 48.06982 6.53438 32044 ft 438 kts 348°
2026-05-07 17:54 48.13000 6.51961 32048 ft 438 kts 348°
2026-05-07 17:55 48.19020 6.50513 32049 ft 438 kts 348°
2026-05-07 17:55 48.25039 6.49083 32056 ft 438 kts 348°
2026-05-07 17:56 48.31058 6.47640 32062 ft 438 kts 348°
2026-05-07 17:56 48.37065 6.46178 32061 ft 437 kts 348°
2026-05-07 17:57 48.42054 6.44961 32057 ft 437 kts 348°
2026-05-07 17:57 48.49067 6.43249 32056 ft 436 kts 348°
2026-05-07 17:58 48.54042 6.42032 32056 ft 436 kts 348°
2026-05-07 17:58 48.60032 6.40569 32051 ft 436 kts 348°
2026-05-07 17:59 48.66034 6.39321 32048 ft 437 kts 355°
2026-05-07 17:59 48.73123 6.39879 32042 ft 439 kts
2026-05-07 18:00 48.78230 6.40399 32043 ft 439 kts
2026-05-07 18:00 48.85312 6.41109 32037 ft 439 kts
2026-05-07 18:01 48.90424 6.41621 32043 ft 439 kts
2026-05-07 18:01 48.96516 6.42238 32050 ft 439 kts
2026-05-07 18:02 49.05619 6.43179 32052 ft 439 kts
2026-05-07 18:03 49.11698 6.43299 32053 ft 435 kts 350°
2026-05-07 18:03 49.17567 6.41218 32052 ft 433 kts 342°
2026-05-07 18:04 49.23381 6.38839 32050 ft 433 kts 343°
2026-05-07 18:04 49.29194 6.36455 32045 ft 432 kts 342°
2026-05-07 18:05 49.35006 6.34060 32047 ft 433 kts 342°
2026-05-07 18:05 49.40819 6.31654 32046 ft 433 kts 342°
2026-05-07 18:06 49.46628 6.29236 32048 ft 433 kts 342°
2026-05-07 18:06 49.52442 6.26827 32047 ft 432 kts 343°
2026-05-07 18:06 49.55354 6.25635 31922 ft 434 kts 343°
2026-05-07 18:07 49.58268 6.24447 31657 ft 434 kts 343°
2026-05-07 18:07 49.61189 6.23253 31401 ft 434 kts 343°
2026-05-07 18:07 49.64112 6.22055 31149 ft 434 kts 343°
2026-05-07 18:07 49.67019 6.20862 30903 ft 432 kts 343°
2026-05-07 18:08 49.69925 6.19671 30651 ft 431 kts 343°
2026-05-07 18:08 49.72820 6.18481 30404 ft 429 kts 343°
2026-05-07 18:08 49.75696 6.17300 30160 ft 428 kts 343°
2026-05-07 18:08 49.78574 6.16115 29877 ft 427 kts 343°
2026-05-07 18:09 49.81433 6.14931 29590 ft 425 kts 343°
2026-05-07 18:09 49.84283 6.13748 29306 ft 423 kts 343°
2026-05-07 18:09 49.87128 6.12577 29023 ft 422 kts 343°
2026-05-07 18:09 49.89978 6.11498 28744 ft 421 kts 345°
2026-05-07 18:10 49.92823 6.10500 28465 ft 420 kts 345°
2026-05-07 18:10 49.95678 6.09538 28192 ft 418 kts 346°
2026-05-07 18:10 49.98512 6.08590 27763 ft 415 kts 346°
2026-05-07 18:10 50.01321 6.07636 27188 ft 412 kts 345°
2026-05-07 18:11 50.04105 6.06672 26637 ft 408 kts 345°
2026-05-07 18:11 50.05939 6.06027 26278 ft 406 kts 345°
2026-05-07 18:11 50.09606 6.04722 25567 ft 402 kts 345°
2026-05-07 18:11 50.12323 6.03751 25050 ft 399 kts 345°
2026-05-07 18:12 50.15017 6.02790 24544 ft 397 kts 345°
2026-05-07 18:12 50.17701 6.01833 24215 ft 395 kts 345°
2026-05-07 18:12 50.20382 6.00880 23978 ft 395 kts 345°
2026-05-07 18:12 50.23053 5.99931 23749 ft 394 kts 345°
2026-05-07 18:13 50.25721 5.98977 23489 ft 393 kts 345°
2026-05-07 18:13 50.28376 5.97989 23053 ft 392 kts 341°
2026-05-07 18:13 50.30813 5.96197 22192 ft 393 kts 322°
2026-05-07 18:13 50.32865 5.93408 21975 ft 381 kts 315°
2026-05-07 18:14 50.34776 5.90660 21592 ft 375 kts 316°
2026-05-07 18:14 50.36690 5.87919 21140 ft 372 kts 316°
2026-05-07 18:14 50.38596 5.85195 20673 ft 369 kts 316°
2026-05-07 18:14 50.40485 5.82489 20208 ft 368 kts 316°
2026-05-07 18:15 50.42364 5.79788 19745 ft 366 kts 316°
2026-05-07 18:15 50.44232 5.77087 19282 ft 364 kts 316°
2026-05-07 18:15 50.46086 5.74398 18810 ft 363 kts 316°
2026-05-07 18:15 50.47935 5.71714 18334 ft 361 kts 316°
2026-05-07 18:16 50.49754 5.69073 17934 ft 349 kts 316°
2026-05-07 18:16 50.51516 5.66521 17384 ft 342 kts 316°
2026-05-07 18:16 50.53261 5.63986 16954 ft 342 kts 316°
2026-05-07 18:16 50.55004 5.61453 16511 ft 340 kts 316°
2026-05-07 18:17 50.56738 5.58931 16077 ft 339 kts 316°
2026-05-07 18:17 50.58462 5.56424 15644 ft 338 kts 316°
2026-05-07 18:17 50.60186 5.53912 15195 ft 337 kts 316°
2026-05-07 18:17 50.61901 5.51409 14776 ft 336 kts 315°
2026-05-07 18:18 50.63613 5.48911 14349 ft 335 kts 316°
2026-05-07 18:18 50.65319 5.46418 13933 ft 334 kts 315°
2026-05-07 18:18 50.67003 5.43951 13503 ft 331 kts 315°
2026-05-07 18:18 50.68688 5.41475 13143 ft 327 kts 315°
2026-05-07 18:19 50.70354 5.39024 12589 ft 329 kts 315°
2026-05-07 18:19 50.72004 5.36593 12334 ft 321 kts 316°
2026-05-07 18:19 50.73629 5.34199 11955 ft 318 kts 316°
2026-05-07 18:19 50.75239 5.31830 11555 ft 316 kts 316°
2026-05-07 18:20 50.76846 5.29465 11151 ft 314 kts 316°
2026-05-07 18:20 50.78442 5.27115 10749 ft 312 kts 316°
2026-05-07 18:20 50.79972 5.24699 10354 ft 310 kts 313°
2026-05-07 18:20 50.81464 5.22249 9954 ft 309 kts 313°
2026-05-07 18:21 50.82946 5.19804 9512 ft 307 kts 313°
2026-05-07 18:21 50.84414 5.17374 9067 ft 305 kts 313°
2026-05-07 18:21 50.85639 5.14710 8783 ft 292 kts 298°
2026-05-07 18:21 50.86585 5.11952 8363 ft 280 kts 298°
2026-05-07 18:22 50.87506 5.09270 7751 ft 276 kts 298°
2026-05-07 18:22 50.88108 5.07511 7326 ft 274 kts 298°
2026-05-07 18:22 50.89306 5.04003 6808 ft 269 kts 298°
2026-05-07 18:22 50.90171 5.01467 6650 ft 251 kts 298°
2026-05-07 18:23 50.90978 4.99097 6308 ft 240 kts 298°
2026-05-07 18:23 50.91764 4.96784 5781 ft 238 kts 298°
2026-05-07 18:23 50.92545 4.94480 5232 ft 237 kts 298°
2026-05-07 18:23 50.93310 4.92219 4705 ft 235 kts 298°
2026-05-07 18:24 50.94082 4.89937 4181 ft 234 kts 298°
2026-05-07 18:24 50.94839 4.87692 3862 ft 231 kts 298°
2026-05-07 18:24 50.95594 4.85452 3342 ft 229 kts 298°
2026-05-07 18:24 50.96331 4.83266 3193 ft 219 kts 298°
2026-05-07 18:25 50.97033 4.81182 3037 ft 210 kts 298°
2026-05-07 18:25 50.97707 4.79182 2886 ft 201 kts 298°
2026-05-07 18:25 50.98232 4.77160 2522 ft 199 kts 281°
2026-05-07 18:25 50.98258 4.74981 2252 ft 198 kts 259°
2026-05-07 18:26 50.97794 4.72949 2056 ft 196 kts 244°
2026-05-07 18:26 50.97216 4.70986 2001 ft 197 kts 245°
2026-05-07 18:26 50.96644 4.69007 2010 ft 197 kts 245°
2026-05-07 18:26 50.96074 4.67029 2009 ft 197 kts 245°
2026-05-07 18:27 50.95503 4.65048 2010 ft 197 kts 245°
2026-05-07 18:27 50.94946 4.63115 2009 ft 186 kts 245°
2026-05-07 18:27 50.94415 4.61266 1705 ft 182 kts 245°
2026-05-07 18:27 50.94075 4.60081 1517 ft 175 kts 245°
2026-05-07 18:28 50.93426 4.57823 1198 ft 161 kts 245°
2026-05-07 18:28 50.92981 4.56286 1012 ft 149 kts 246°
2026-05-07 18:28 50.92557 4.54821 801 ft 145 kts 246°
2026-05-07 18:28 50.92141 4.53379 615 ft 143 kts 246°
2026-05-07 18:29 50.91730 4.51941 416 ft 143 kts 247°
2026-05-07 18:29 50.91321 4.50508 226 ft 143 kts 246°
2026-05-07 18:29 50.90917 4.49118 114 ft 127 kts 245°
2026-05-07 18:29 50.90621 4.48090 118 ft 78 kts 245°
2026-05-07 18:30 50.90446 4.47497 115 ft 53 kts 244°
2026-05-07 18:30 50.90319 4.47036 120 ft 24 kts 247°
2026-05-07 18:30 50.90228 4.46950 122 ft 16 kts 143°
2026-05-07 18:30 50.90194 4.47045 124 ft 7 kts 116°
2026-05-07 18:31 50.90178 4.47097 123 ft 3 kts 116°
2026-05-07 18:31 50.90177 4.47101 123 ft 0 kts 115°
2026-05-07 18:32 50.90163 4.47148 124 ft 9 kts 116°
2026-05-07 18:32 50.90141 4.47218 125 ft 6 kts 116°
2026-05-07 18:32 50.90135 4.47303 127 ft 13 kts 72°
2026-05-07 18:33 50.90181 4.47464 121 ft 18 kts 65°
2026-05-07 18:33 50.90236 4.47657 123 ft 21 kts 65°
2026-05-07 18:33 50.90292 4.47846 122 ft 10 kts 65°
2026-05-07 18:33 50.90317 4.47934 123 ft 7 kts 66°
2026-05-07 18:34 50.90336 4.48002 121 ft 6 kts 66°
2026-05-07 18:34 50.90355 4.48069 124 ft 10 kts 65°
2026-05-07 18:34 50.90381 4.48159 121 ft 6 kts 65°
2026-05-07 18:34 50.90381 4.48200 122 ft 3 kts 107°
2026-05-07 18:35 50.90362 4.48225 122 ft 8 kts 149°
2026-05-07 18:35 50.90327 4.48252 122 ft 3 kts 154°
2026-05-07 18:35 50.90317 4.48260 122 ft 0 kts 154°
2026-05-07 18:35 50.90314 4.48262 123 ft 0 kts 154°